GW3840 Weather Reports


time (UTC)temp
C
wind
direction
speed
KPH
gust
KPH
rain 1hr
cm
rain 24hr
cm
rain mn
cm
humidity
%
barometer
mb
20260901124945 17 259 3.2 4.8 0.00 0.00 0.00 90 1016.9
20260901124440 16 195 1.6 3.2 0.00 0.00 0.00 96 1016.7
20260901123935 16 227 1.6 1.6 0.00 0.00 0.00 99 1016.7
20260901123430 15 213 0.0 0.0 0.00 0.00 0.00 99 1016.6
20260901122928 15 208 0.0 0.0 0.00 0.00 0.00 99 1016.7
20260901122428 15 203 0.0 0.0 0.00 0.00 0.00 99 1016.6
20260901121927 14 203 0.0 0.0 0.00 0.00 0.00 99 1016.5
20260901121422 14 219 0.0 0.0 0.00 0.00 0.00 99 1016.6
20260901120917 14 219 0.0 0.0 0.00 0.00 0.00 99 1016.5
20260901120417 14 220 0.0 0.0 0.00 0.00 0.00 99 1016.3
20260901115913 14 222 0.0 0.0 0.00 0.00 0.00 99 1016.4
20260901115412 15 232 0.0 0.0 0.00 0.00 0.00 99 1016.4
20260901114911 14 231 0.0 0.0 0.00 0.00 0.00 99 1016.4
20260901114406 13 212 0.0 0.0 0.00 0.00 0.00 99 1016.6
20260901113904 14 211 0.0 0.0 0.00 0.00 0.00 99 1016.4
20260901113403 13 206 0.0 0.0 0.00 0.00 0.00 99 1016.2
20260901112858 14 206 0.0 0.0 0.00 0.00 0.00 99 1016.2
20260901112353 14 239 0.0 0.0 0.00 0.00 0.00 99 1016.2
20260901111848 14 251 0.0 0.0 0.00 0.00 0.00 98 1016.1
20260901111347 15 187 0.0 0.0 0.00 0.00 0.00 98 1016.0
20260901110845 15 193 0.0 0.0 0.00 0.00 0.00 98 1016.0
20260901110341 14 191 0.0 0.0 0.00 0.00 0.00 98 1015.9
20260901105837 14 188 0.0 0.0 0.00 0.00 0.00 98 1015.8
20260901105332 15 186 0.0 0.0 0.00 0.00 0.00 97 1015.7
20260901104829 15 215 0.0 0.0 0.00 0.00 0.00 96 1015.7
20260901104324 15 215 0.0 0.0 0.00 0.00 0.00 96 1015.5
20260901103819 15 193 0.0 0.0 0.00 0.00 0.00 95 1015.6
20260901103319 15 219 0.0 0.0 0.00 0.00 0.00 94 1015.7
20260901102814 15 173 0.0 0.0 0.00 0.00 0.00 93 1015.9
20260901102308 15 173 0.0 0.0 0.00 0.00 0.00 92 1015.6
20260901101804 16 155 0.0 0.0 0.00 0.00 0.00 91 1015.8
20260901101303 16 184 0.0 0.0 0.00 0.00 0.00 88 1015.5
20260901100803 17 216 0.0 0.0 0.00 0.00 0.00 86 1015.4
20260901100258 17 212 0.0 1.6 0.00 0.00 0.00 85 1015.6
20260901095756 17 219 0.0 0.0 0.00 0.00 0.00 85 1015.4
20260901095254 17 246 1.6 3.2 0.00 0.00 0.00 84 1015.4
20260901094748 17 241 1.6 1.6 0.00 0.00 0.00 84 1015.5
20260901094243 18 258 1.6 1.6 0.00 0.00 0.00 84 1015.4
20260901093739 18 226 1.6 3.2 0.00 0.00 0.00 84 1015.4
20260901093237 18 289 3.2 3.2 0.00 0.00 0.00 85 1015.3
20260901092734 18 247 1.6 3.2 0.00 0.00 0.00 85 1015.4
20260901092229 17 251 1.6 1.6 0.00 0.00 0.00 88 1015.3
20260901091725 17 233 1.6 1.6 0.00 0.00 0.00 90 1015.4
20260901091220 16 234 0.0 1.6 0.00 0.00 0.00 93 1015.4
20260901090715 16 237 0.0 0.0 0.00 0.00 0.00 97 1015.3
20260901090210 16 218 0.0 0.0 0.00 0.00 0.00 98 1015.3
20260901085706 16 218 0.0 0.0 0.00 0.00 0.00 97 1015.1
20260901085201 16 218 0.0 1.6 0.00 0.00 0.00 98 1015.2
20260901084657 16 222 0.0 0.0 0.00 0.00 0.00 98 1015.4
20260901084153 16 210 0.0 0.0 0.00 0.00 0.00 98 1015.3
20260901083647 16 210 0.0 0.0 0.00 0.00 0.00 98 1015.2
20260901083146 16 208 0.0 0.0 0.00 0.00 0.00 97 1015.2
20260901082640 16 208 0.0 0.0 0.00 0.00 0.00 97 1015.2
20260901082136 16 208 0.0 0.0 0.00 0.00 0.00 96 1015.2
20260901081631 16 208 0.0 0.0 0.00 0.00 0.00 96 1015.2
20260901081125 16 208 0.0 0.0 0.00 0.00 0.00 95 1015.3
20260901080620 16 181 0.0 0.0 0.00 0.00 0.00 95 1015.4
20260901080118 16 180 0.0 1.6 0.00 0.00 0.00 93 1015.3
20260901075614 16 176 0.0 0.0 0.00 0.00 0.00 92 1015.2
20260901075114 17 174 0.0 0.0 0.00 0.00 0.00 92 1015.3
20260901074613 17 186 0.0 0.0 0.00 0.00 0.00 91 1015.3
20260901074108 17 156 0.0 0.0 0.00 0.00 0.00 91 1015.2
20260901073605 17 149 0.0 0.0 0.00 0.00 0.00 90 1015.4
20260901073059 18 165 0.0 0.0 0.00 0.00 0.00 89 1015.2
20260901072555 18 176 0.0 0.0 0.00 0.00 0.00 87 1015.3
20260901072049 19 166 0.0 3.2 0.00 0.00 0.00 85 1015.3
20260901071544 19 220 0.0 6.4 0.00 0.00 0.00 84 1015.3
20260901071042 19 218 1.6 3.2 0.00 0.00 0.00 84 1015.5
20260901070538 19 203 1.6 4.8 0.00 0.00 0.00 85 1015.3
20260901070033 18 241 1.6 1.6 0.00 0.00 0.00 86 1015.3
20260901065527 19 261 1.6 1.6 0.00 0.00 0.00 84 1015.3
20260901065022 19 234 0.0 3.2 0.00 0.00 0.00 85 1015.1
20260901064519 19 229 1.6 4.8 0.00 0.00 0.00 84 1015.5
20260901064015 18 168 1.6 3.2 0.00 0.00 0.00 85 1015.5
20260901063512 18 226 0.0 0.0 0.00 0.00 0.00 86 1015.4
20260901063007 18 199 0.0 0.0 0.00 0.00 0.00 85 1015.3
20260901062502 18 137 0.0 0.0 0.00 0.00 0.00 86 1015.6
20260901061953 18 226 0.0 0.0 0.00 0.00 0.00 86 1015.6
20260901061449 18 154 0.0 1.6 0.00 0.00 0.00 85 1015.5
20260901060948 18 183 0.0 0.0 0.00 0.00 0.00 84 1015.7
20260901060443 18 201 0.0 0.0 0.00 0.00 0.00 83 1015.4
20260901055938 18 158 0.0 0.0 0.00 0.00 0.00 82 1015.6
20260901055434 19 183 0.0 0.0 0.00 0.00 0.00 81 1015.5
20260901054925 19 151 0.0 0.0 0.00 0.00 0.00 80 1015.4
20260901054422 20 193 0.0 0.0 0.00 0.00 0.00 78 1015.4
20260901053918 20 176 0.0 0.0 0.00 0.00 0.00 77 1015.3
20260901053413 20 223 1.6 4.8 0.00 0.00 0.00 75 1015.2
20260901052908 20 207 1.6 3.2 0.00 0.00 0.00 76 1015.4
20260901052403 20 130 0.0 3.2 0.00 0.00 0.00 76 1015.4
20260901051902 20 184 0.0 1.6 0.00 0.00 0.00 75 1015.2
20260901051357 20 187 1.6 3.2 0.00 0.00 0.00 77 1015.3
20260901050852 18 139 0.0 3.2 0.00 0.00 0.00 81 1015.3
20260901050348 18 176 0.0 0.0 0.00 0.00 0.00 82 1015.3
20260901045843 19 176 0.0 0.0 0.00 0.00 0.00 80 1015.4
20260901045342 19 176 0.0 0.0 0.00 0.00 0.00 80 1015.3
20260901044838 19 157 0.0 0.0 0.00 0.00 0.00 80 1015.4
20260901044334 20 171 0.0 0.0 0.00 0.00 0.00 79 1015.2
20260901043830 20 182 0.0 0.0 0.00 0.00 0.00 77 1015.4
20260901043326 20 193 0.0 1.6 0.00 0.00 0.00 76 1015.3
20260901042824 20 181 0.0 1.6 0.00 0.00 0.00 76 1015.3
20260901042319 20 183 0.0 1.6 0.00 0.00 0.00 77 1015.3
20260901041815 20 175 0.0 0.0 0.00 0.00 0.00 77 1015.0
20260901041310 20 230 1.6 1.6 0.00 0.00 0.00 78 1015.1
20260901040804 19 163 0.0 1.6 0.00 0.00 0.00 82 1015.2
20260901040304 19 121 0.0 1.6 0.00 0.00 0.00 84 1015.3
20260901035803 18 170 0.0 0.0 0.00 0.00 0.00 85 1015.0
20260901035305 18 182 0.0 0.0 0.00 0.00 0.00 86 1015.0
20260901034800 18 185 0.0 0.0 0.00 0.00 0.00 88 1015.2
20260901034255 18 186 0.0 0.0 0.00 0.00 0.00 88 1015.2
20260901033749 18 180 0.0 0.0 0.00 0.00 0.00 88 1015.1
20260901033243 18 187 0.0 0.0 0.00 0.00 0.00 88 1015.0
20260901032742 18 190 0.0 0.0 0.00 0.00 0.00 88 1015.4
20260901032236 18 191 0.0 0.0 0.00 0.00 0.00 87 1015.2
20260901031726 18 191 0.0 0.0 0.00 0.00 0.00 87 1015.2
20260901031222 18 190 0.0 0.0 0.00 0.00 0.00 86 1015.3
20260901030721 18 197 0.0 0.0 0.00 0.00 0.00 85 1015.3
20260901030216 18 197 0.0 0.0 0.00 0.00 0.00 84 1015.1
20260901025711 18 197 0.0 0.0 0.00 0.00 0.00 83 1015.1
20260901025206 18 197 0.0 0.0 0.00 0.00 0.00 83 1015.0
20260901024705 18 199 0.0 0.0 0.00 0.00 0.00 83 1015.1
20260901024204 19 199 0.0 0.0 0.00 0.00 0.00 82 1014.7
20260901023702 19 207 0.0 0.0 0.00 0.00 0.00 80 1014.9
20260901023158 19 207 0.0 0.0 0.00 0.00 0.00 80 1014.9
20260901022653 19 207 0.0 0.0 0.00 0.00 0.00 80 1014.7
20260901022148 20 206 0.0 0.0 0.00 0.00 0.00 78 1014.7
20260901021643 20 207 0.0 0.0 0.00 0.00 0.00 79 1014.7
20260901021139 20 207 0.0 0.0 0.00 0.00 0.00 78 1014.6
20260901020635 20 195 0.0 0.0 0.00 0.00 0.00 79 1014.7
20260901020130 20 208 0.0 0.0 0.00 0.00 0.00 79 1014.6
20260901015625 20 192 0.0 0.0 0.00 0.00 0.00 79 1014.6
20260901015125 20 195 0.0 0.0 0.00 0.00 0.00 79 1014.5
20260901014619 20 178 0.0 0.0 0.00 0.00 0.00 78 1014.5
20260901014116 20 178 0.0 0.0 0.00 0.00 0.00 76 1014.5
20260901013612 20 179 0.0 0.0 0.00 0.00 0.00 75 1014.5
20260901013108 21 178 0.0 0.0 0.00 0.00 0.00 75 1014.3
20260901012607 21 179 0.0 0.0 0.00 0.00 0.00 73 1014.4
20260901012102 21 87 0.0 0.0 0.00 0.00 0.00 72 1014.2
20260901011559 22 87 0.0 0.0 0.00 0.00 0.00 69 1014.1
20260901011056 22 217 0.0 0.0 0.00 0.00 0.00 67 1014.2
20260901010552 23 104 0.0 0.0 0.00 0.00 0.00 66 1014.3
20260901010051 23 110 0.0 0.0 0.00 0.00 0.00 64 1014.4
20260901005546 24 233 1.6 3.2 0.00 0.00 0.00 62 1014.4
20260901005041 25 240 1.6 1.6 0.00 0.00 0.00 61 1014.4
20260901004540 25 215 1.6 4.8 0.00 0.00 0.00 61 1014.3
20260901004035 25 234 1.6 4.8 0.00 0.00 0.00 60 1014.3
20260901003531 26 229 3.2 4.8 0.00 0.00 0.00 58 1014.1
20260901003029 26 230 1.6 3.2 0.00 0.00 0.00 56 1014.3
20260901002528 26 183 1.6 4.8 0.00 0.00 0.00 55 1014.3
20260901002024 26 247 6.4 6.4 0.00 0.00 0.00 53 1014.3
20260901001519 27 233 1.6 9.7 0.00 0.00 0.00 51 1014.2
20260901001014 27 211 3.2 9.7 0.00 0.00 0.00 52 1014.1
20260901000513 27 193 0.0 3.2 0.00 0.00 0.00 52 1014.4
20260901000009 27 227 4.8 4.8 0.00 0.00 0.00 52 1014.1
20260831235503 27 252 4.8 6.4 0.00 0.00 0.00 49 1014.3
20260831234958 27 277 4.8 9.7 0.00 0.00 0.00 51 1014.3
20260831234453 27 162 3.2 4.8 0.00 0.00 0.00 47 1013.9
20260831233949 27 272 4.8 4.8 0.00 0.00 0.00 46 1014.2
20260831233444 28 251 4.8 6.4 0.00 0.00 0.00 45 1014.3
20260831232939 28 184 3.2 6.4 0.00 0.00 0.00 46 1014.2
20260831232435 28 235 3.2 6.4 0.00 0.00 0.00 47 1014.2
20260831231931 28 225 3.2 11.3 0.00 0.00 0.00 47 1014.1
20260831231427 28 173 3.2 6.4 0.00 0.00 0.00 45 1014.2
20260831230923 28 246 3.2 6.4 0.00 0.00 0.00 43 1014.2
20260831230422 28 232 6.4 9.7 0.00 0.00 0.00 43 1014.2
20260831225917 28 228 6.4 9.7 0.00 0.00 0.00 43 1014.2
20260831225414 28 215 1.6 9.7 0.00 0.00 0.00 43 1014.3
20260831224908 28 269 4.8 9.7 0.00 0.00 0.00 43 1014.3
20260831224408 29 238 8.0 11.3 0.00 0.00 0.00 42 1014.2
20260831223903 29 247 6.4 9.7 0.00 0.00 0.00 41 1014.2
20260831223358 30 248 4.8 9.7 0.00 0.00 0.00 40 1014.2
20260831222855 28 229 1.6 9.7 0.00 0.00 0.00 41 1014.1
20260831222350 29 266 4.8 4.8 0.00 0.00 0.00 40 1014.1
20260831221845 29 206 4.8 9.7 0.00 0.00 0.00 41 1014.1
20260831221341 29 231 3.2 6.4 0.00 0.00 0.00 39 1014.0
20260831220836 30 236 3.2 6.4 0.00 0.00 0.00 39 1014.1
20260831220331 28 232 4.8 9.7 0.00 0.00 0.00 41 1014.1
20260831215826 29 247 6.4 12.9 0.00 0.00 0.00 39 1014.4
20260831215322 29 265 4.8 6.4 0.00 0.00 0.00 40 1014.3
20260831214818 29 255 6.4 9.7 0.00 0.00 0.00 41 1014.2
20260831214316 29 253 4.8 6.4 0.00 0.00 0.00 41 1014.2
20260831213811 29 260 4.8 12.9 0.00 0.00 0.00 41 1014.4
20260831213307 28 269 6.4 9.7 0.00 0.00 0.00 41 1014.4
20260831212802 29 213 3.2 6.4 0.00 0.00 0.00 38 1014.2
20260831212259 30 213 9.7 12.9 0.00 0.00 0.00 38 1014.2
20260831211757 29 243 4.8 11.3 0.00 0.00 0.00 42 1014.3
20260831211252 29 227 8.0 11.3 0.00 0.00 0.00 42 1014.2
20260831210747 29 135 6.4 9.7 0.00 0.00 0.00 42 1014.3
20260831210243 30 226 6.4 6.4 0.00 0.00 0.00 42 1014.3
20260831205742 30 308 3.2 4.8 0.00 0.00 0.00 42 1014.3
20260831205238 30 262 4.8 12.9 0.00 0.00 0.00 40 1014.1
20260831204738 29 261 9.7 12.9 0.00 0.00 0.00 40 1014.2
20260831204237 29 216 4.8 9.7 0.00 0.00 0.00 39 1014.3
20260831203736 30 251 8.0 11.3 0.00 0.00 0.00 40 1014.2
20260831203231 29 214 6.4 11.3 0.00 0.00 0.00 41 1014.3
20260831202729 29 296 9.7 12.9 0.00 0.00 0.00 38 1014.4
20260831202225 29 350 4.8 9.7 0.00 0.00 0.00 38 1014.3
20260831201724 29 260 8.0 20.9 0.00 0.00 0.00 36 1014.3
20260831201219 29 275 4.8 9.7 0.00 0.00 0.00 39 1014.2
20260831200714 30 248 4.8 11.3 0.00 0.00 0.00 40 1014.2
20260831200209 30 317 4.8 9.7 0.00 0.00 0.00 40 1014.1
20260831195704 29 273 6.4 12.9 0.00 0.00 0.00 38 1014.2
20260831195159 29 276 6.4 9.7 0.00 0.00 0.00 39 1014.3
20260831194654 29 290 8.0 9.7 0.00 0.00 0.00 40 1014.3
20260831194149 28 317 4.8 16.1 0.00 0.00 0.00 40 1014.2
20260831193643 30 218 4.8 6.4 0.00 0.00 0.00 40 1014.4
20260831193139 28 208 6.4 11.3 0.00 0.00 0.00 43 1014.2
20260831192633 28 322 6.4 9.7 0.00 0.00 0.00 42 1014.1
20260831192129 28 114 1.6 6.4 0.00 0.00 0.00 42 1014.0
20260831191625 29 23 3.2 4.8 0.00 0.00 0.00 40 1014.0
20260831191120 28 210 4.8 6.4 0.00 0.00 0.00 39 1014.0
20260831190615 28 299 4.8 9.7 0.00 0.00 0.00 42 1013.9
20260831190114 28 284 4.8 11.3 0.00 0.00 0.00 45 1013.9
20260831185610 28 245 8.0 12.9 0.00 0.00 0.00 43 1014.1
20260831185106 27 311 4.8 11.3 0.00 0.00 0.00 47 1014.1
20260831184600 27 238 3.2 9.7 0.00 0.00 0.00 45 1014.1
20260831184055 27 273 3.2 11.3 0.00 0.00 0.00 45 1014.0
20260831183554 27 310 6.4 9.7 0.00 0.00 0.00 45 1014.1
20260831183048 27 7 6.4 12.9 0.00 0.00 0.00 42 1014.2
20260831182542 27 309 4.8 12.9 0.00 0.00 0.00 48 1014.3
20260831182038 27 318 6.4 9.7 0.00 0.00 0.00 45 1014.1
20260831181533 27 273 9.7 14.5 0.00 0.00 0.00 44 1014.2
20260831181032 27 221 3.2 11.3 0.00 0.00 0.00 45 1014.2
20260831180527 27 342 4.8 12.9 0.00 0.00 0.00 47 1014.3
20260831180022 26 12 4.8 11.3 0.00 0.00 0.00 48 1014.2
20260831175517 27 335 6.4 11.3 0.00 0.00 0.00 48 1014.2
20260831175014 27 330 4.8 12.9 0.00 0.00 0.00 49 1014.3
20260831174508 26 306 11.3 12.9 0.00 0.00 0.00 48 1014.4
20260831174003 26 14 3.2 9.7 0.00 0.00 0.00 52 1014.4
20260831173501 26 331 3.2 12.9 0.00 0.00 0.00 53 1014.4
20260831172957 25 315 8.0 12.9 0.00 0.00 0.00 54 1014.2
20260831172453 26 279 8.0 12.9 0.00 0.00 0.00 52 1014.3
20260831171948 26 335 3.2 9.7 0.00 0.00 0.00 54 1014.2
20260831171443 26 324 4.8 12.9 0.00 0.00 0.00 52 1014.5
20260831170940 26 292 3.2 9.7 0.00 0.00 0.00 56 1014.5
20260831170436 25 269 8.0 11.3 0.00 0.00 0.00 53 1014.2
20260831165932 26 314 6.4 9.7 0.00 0.00 0.00 55 1014.3
20260831165428 25 346 4.8 12.9 0.00 0.00 0.00 56 1014.2
20260831164924 25 296 6.4 9.7 0.00 0.00 0.00 57 1014.4
20260831164420 25 16 6.4 9.7 0.00 0.00 0.00 62 1014.3
20260831163915 25 349 9.7 14.5 0.00 0.00 0.00 60 1014.2
20260831163411 25 290 4.8 12.9 0.00 0.00 0.00 62 1014.2
20260831162909 25 334 9.7 12.9 0.00 0.00 0.00 61 1014.2
20260831162405 25 283 8.0 11.3 0.00 0.00 0.00 64 1014.3
20260831161903 25 354 6.4 9.7 0.00 0.00 0.00 67 1014.2
20260831161400 25 289 4.8 11.3 0.00 0.00 0.00 65 1014.5
20260831160855 24 352 4.8 11.3 0.00 0.00 0.00 68 1014.5
20260831160349 25 48 4.8 9.7 0.00 0.00 0.00 66 1014.5
20260831155844 23 303 6.4 9.7 0.00 0.00 0.00 70 1014.4
20260831155338 23 293 8.0 16.1 0.00 0.00 0.00 70 1014.5
20260831154834 23 263 6.4 9.7 0.00 0.00 0.00 74 1014.5
20260831154331 23 240 1.6 4.8 0.00 0.00 0.00 75 1014.5
20260831153829 22 265 6.4 6.4 0.00 0.00 0.00 77 1014.4
20260831153325 22 309 4.8 9.7 0.00 0.00 0.00 80 1014.3
20260831152821 22 280 8.0 12.9 0.00 0.00 0.00 80 1014.1
20260831152317 22 287 3.2 11.3 0.00 0.00 0.00 82 1014.2
20260831151812 22 317 6.4 6.4 0.00 0.00 0.00 81 1014.1
20260831151311 21 330 3.2 4.8 0.00 0.00 0.00 84 1014.2
20260831150806 21 338 4.8 9.7 0.00 0.00 0.00 84 1013.9
20260831150301 21 268 4.8 9.7 0.00 0.00 0.00 85 1013.7
20260831145800 21 342 4.8 6.4 0.00 0.00 0.00 84 1013.7
20260831145257 21 305 9.7 12.9 0.00 0.00 0.00 84 1013.9
20260831144752 21 334 3.2 12.9 0.00 0.00 0.00 86 1013.7
20260831144249 21 329 4.8 6.4 0.00 0.00 0.00 86 1013.7
20260831143748 21 228 3.2 9.7 0.00 0.00 0.00 89 1013.7
20260831143243 20 263 8.0 11.3 0.00 0.00 0.00 89 1013.5
20260831142739 20 317 4.8 6.4 0.00 0.00 0.00 90 1013.6
20260831142234 20 351 8.0 12.9 0.00 0.00 0.00 91 1013.9
20260831141733 20 258 6.4 11.3 0.00 0.00 0.00 90 1013.7
20260831141228 20 294 9.7 14.5 0.00 0.00 0.00 90 1013.5
20260831140728 20 55 3.2 9.7 0.00 0.00 0.00 90 1013.4
20260831140222 20 340 6.4 9.7 0.00 0.00 0.00 90 1013.4
20260831135720 20 275 3.2 9.7 0.00 0.00 0.00 92 1013.2
20260831135216 20 44 3.2 11.3 0.00 0.00 0.00 93 1013.1
20260831134712 20 50 3.2 11.3 0.00 0.00 0.00 93 1013.2
20260831134208 20 268 4.8 9.7 0.00 0.00 0.00 93 1013.2
20260831133706 19 278 9.7 14.5 0.00 0.00 0.00 94 1013.1
20260831133201 19 287 9.7 16.1 0.00 0.00 0.00 95 1013.1
20260831132657 19 338 6.4 16.1 0.00 0.00 0.00 96 1013.0
20260831132156 19 9 8.0 12.9 0.00 0.00 0.00 95 1013.1
20260831131651 19 287 4.8 12.9 0.00 0.00 0.00 95 1013.0
20260831131148 20 14 8.0 11.3 0.00 0.00 0.00 95 1013.0
20260831130642 19 332 4.8 14.5 0.00 0.00 0.00 96 1012.6
20260831130138 19 348 3.2 12.9 0.00 0.00 0.00 97 1012.9
20260831125636 19 297 3.2 6.4 0.00 0.00 0.00 97 1012.7